map of TUN home
Great Circle Mapper logo
TUN - Airport
Location
City:  Tunis, Tunisia
Name:Carthage International Airport
ICAO / IATA:DTTA / TUN

Details
Type:Airport (Aerodrome, Airfield)
Use:Public/Civil, International (customs port of entry)
Latitude:3651'04"N (36.851111)
Longitude:1013'37"E (10.226944)
Elevation:22 ft (7 m)
Runways:2
Longest:10499 × 148 ft (3200 × 45 m), paved

Time
Time Zone:UTC+1 (DST+2)

Weather
METAR:DTTA 010530Z 00000KT 8000 SCT026 14/12 Q1022 NOSIG
TAF:DTTA 010540Z 0106/0206 VRB03KT 8000 SCT026
BECMG 0107/0109 33008KT 9999 SCT023
BECMG 0112/0114 02008KT 0117/0119 VRB03KT 8000 FEW023

Related Locations
Nearby:
Farthest:CHT: 11839 mi / 19052 km
Waitangi [Tuuta], Chatham Islands, NZ

Find:

   beyond  
but within

Other Information
Maps:
NOTAMs:
Links:
Sources:

  
flag of Tunisia   

Airport Diagram

Airport diagram for TUN

Airport diagram (OBSOLETE) from NGA

Sectional Chart

Flight Planning
at skyvector.com

Satellite Image

Google Maps Satellite View

 

Copyright © 2004-2014 Karl L. Swartz. All rights reserved.
The Great Circle Mapper name and logo are trademarks of the Great Circle Mapper.
All other trademarks mentioned herein belong to their respective owners.
Please see credits for attibutions and further copyright information.

  Follow gcmap on Facebook Follow gcmap on Twitter

hCard Microformat

Geo Microformat